Weather reports worldwide

Advertisment
Sennybridge, United Kingdom (3507): temperature & dewpoint: 04.12.2018 03:00:00 - 10.12.2018 03:00:00 (GMT)Sennybridge, United Kingdom (3507): temperature -20cm & temperature -100cm: 04.12.2018 03:00:00 - 10.12.2018 03:00:00 (GMT)Sennybridge, United Kingdom (3507): wind speed & gusts: 04.12.2018 03:00:00 - 10.12.2018 03:00:00 (GMT)Sennybridge, United Kingdom (3507): wind direction: 04.12.2018 03:00:00 - 10.12.2018 03:00:00 (GMT)Sennybridge, United Kingdom (3507): reduced air pressure: 04.12.2018 03:00:00 - 10.12.2018 03:00:00 (GMT)Sennybridge, United Kingdom (3507): visibility: 04.12.2018 03:00:00 - 10.12.2018 03:00:00 (GMT)Sennybridge, United Kingdom (3507): precipitation: 04.12.2018 03:00:00 - 10.12.2018 03:00:00 (GMT)
Date & Time tt [°C] td [°C] tt -20cm [°C] tt -100cm [°C] ff [km/h] ff [kn] fx [km/h] fx [kn] dd ppp [hPa] vv [km] rr [mm]
10.12.2018 03:00:00 6,0 4,5 - - 5 3 - - WNW 1026,2 15 0,0
10.12.2018 02:00:00 6,0 4,6 - - 5 3 - - NW 1025,9 22 0,0
10.12.2018 01:00:00 5,8 4,8 - - 5 3 - - WNW 1025,5 11 0,0
10.12.2018 00:00:00 5,9 4,6 - - 5 3 - - WNW 1025,3 11 0,0
09.12.2018 23:00:00 6,0 4,8 - - 5 3 - - WNW 1024,5 18 0,2
09.12.2018 22:00:00 6,0 5,0 - - 5 3 - - W 1024,1 10 0,6
09.12.2018 21:00:00 6,3 4,8 - - 8 4 - - WNW 1023,5 18 0,4
09.12.2018 20:00:00 6,6 5,2 - - 8 4 - - WNW 1022,7 35 0,0
09.12.2018 19:00:00 5,5 3,8 - - 9 5 - - NNW 1022,3 18 0,6
09.12.2018 18:00:00 6,3 4,7 - - 5 3 - - WNW 1020,8 30 0,0
09.12.2018 17:00:00 6,5 5,1 - - 9 5 - - NW 1019,9 13 0,0
09.12.2018 16:00:00 6,7 5,1 - - 8 4 - - WNW 1018,4 19 0,0
09.12.2018 15:00:00 7,0 5,5 - - 11 6 - - NW 1017,2 30 1,0
09.12.2018 14:00:00 7,4 4,9 - - 11 6 - - NW 1016,0 30 0,0
09.12.2018 13:00:00 7,3 5,1 - - 11 6 - - NW 1015,1 45 0,0
09.12.2018 12:00:00 7,1 5,5 - - 9 5 - - NNW 1013,8 28 0,2
09.12.2018 11:00:00 7,0 5,5 - - 11 6 - - NNW 1012,5 40 0,0
09.12.2018 10:00:00 6,9 5,9 - - 13 7 - - NNW 1010,2 45 1,2
09.12.2018 09:00:00 7,1 6,0 8,7 9,2 13 7 - - NW 1008,0 5 0,6
09.12.2018 08:00:00 7,1 5,7 - - 15 8 - - NW 1006,3 6 0,2
09.12.2018 07:00:00 7,1 5,7 - - 11 6 - - WNW 1004,1 8 0,2
09.12.2018 06:00:00 7,0 6,0 - - 11 6 - - WNW 1002,9 5 1,2
09.12.2018 05:00:00 7,3 6,0 - - 13 7 - - WNW 1001,6 4,7 0,6
09.12.2018 04:00:00 6,8 6,0 - - 13 7 - - WNW 1001,1 5 1,4
09.12.2018 03:00:00 6,8 5,9 - - 11 6 - - W 1000,5 5 1,8
09.12.2018 02:00:00 7,0 5,0 - - 18 10 46 25 W 1000,3 4,6 0,0
09.12.2018 01:00:00 6,4 5,2 - - 9 5 - - W 1000,7 11 0,8
09.12.2018 00:00:00 7,0 4,5 - - 15 8 - - W 1000,3 15 0,0
08.12.2018 23:00:00 6,8 4,8 - - 13 7 - - W 1000,3 7 0,4
08.12.2018 22:00:00 7,0 4,9 - - 11 6 - - WNW 1000,3 15 1,8
08.12.2018 21:00:00 6,9 5,2 - - 9 5 - - W 1000,1 6 0,2
08.12.2018 20:00:00 6,9 5,6 - - 21 11 - - W 1000,0 13 0,4
08.12.2018 19:00:00 7,0 5,6 - - 11 6 - - W 1000,0 7 0,4
08.12.2018 18:00:00 7,0 5,8 - - 11 6 - - W 999,8 10 0,0
08.12.2018 17:00:00 7,5 6,5 - - 16 9 - - W 999,2 8 1,6
08.12.2018 16:00:00 8,5 6,4 - - 9 5 72 39 W 999,2 8 0,0
08.12.2018 15:00:00 8,7 6,9 - - 18 10 61 33 W 999,2 5 0,0
08.12.2018 14:00:00 9,3 8,5 - - 29 16 50 27 WSW 999,4 9 0,2
08.12.2018 13:00:00 9,3 8,7 - - 24 13 67 36 WSW 1001,0 13 0,2
08.12.2018 12:00:00 9,2 9,1 - - 39 21 54 29 SW 1001,2 2,8 2,0
08.12.2018 11:00:00 7,7 7,7 - - 22 12 - - SW 1003,4 2,7 2,0
08.12.2018 10:00:00 6,4 6,0 - - 18 10 - - SW 1005,8 2,4 1,4
08.12.2018 09:00:00 6,8 5,4 8,7 9,2 24 13 - - WSW 1006,4 9 0,0
08.12.2018 08:00:00 6,2 5,5 - - 22 12 - - WSW 1007,3 8 0,6
08.12.2018 07:00:00 6,1 5,4 - - 18 10 - - WSW 1007,0 6 1,0
08.12.2018 06:00:00 6,1 5,1 - - 15 8 - - W 1006,6 6 0,2
08.12.2018 05:00:00 6,4 4,7 - - 13 7 - - W 1006,0 18 0,0
08.12.2018 04:00:00 6,1 5,1 - - 22 12 46 25 W 1005,7 9 0,0
08.12.2018 03:00:00 6,0 5,1 - - 15 8 - - W 1005,5 4,6 0,4
08.12.2018 02:00:00 6,1 5,0 - - 15 8 48 26 W 1004,7 12 0,6
08.12.2018 01:00:00 6,1 4,7 - - 21 11 61 33 W 1004,4 5 1,0
08.12.2018 00:00:00 6,3 4,4 - - 22 12 59 32 W 1004,3 12 0,6
07.12.2018 23:00:00 6,1 4,2 - - 26 14 54 29 WSW 1004,4 11 0,0
07.12.2018 22:00:00 6,1 3,8 - - 22 12 - - WSW 1004,4 16 0,0
07.12.2018 21:00:00 5,6 4,1 - - 26 14 - - WSW 1004,6 16 0,4
07.12.2018 20:00:00 5,2 3,7 - - 18 10 - - WSW 1004,9 8 0,8
07.12.2018 19:00:00 4,7 3,5 - - 18 10 - - WSW 1004,5 9 0,4
07.12.2018 18:00:00 4,7 2,7 - - 18 10 - - WSW 1004,5 24 0,0
07.12.2018 17:00:00 4,4 2,7 - - 9 5 - - W 1004,0 8 0,0
07.12.2018 16:00:00 4,0 2,5 - - 16 9 - - W 1003,0 40 0,6
07.12.2018 15:00:00 6,0 2,2 - - 18 10 - - W 1002,0 19 0,0
07.12.2018 14:00:00 5,5 2,1 - - 9 5 - - WNW 1002,3 27 0,0
07.12.2018 13:00:00 6,0 2,3 - - 15 8 - - W 1001,6 27 0,0
07.12.2018 12:00:00 6,1 3,8 - - 9 5 - - WNW 1001,6 14 0,8
07.12.2018 11:00:00 7,3 5,0 - - 9 5 - - W 1001,4 13 0,0
07.12.2018 10:00:00 6,3 4,2 - - 8 4 - - W 1001,3 20 0,0
07.12.2018 09:00:00 6,8 6,1 9,0 9,2 5 3 - - WNW 1000,8 10 0,4
07.12.2018 08:00:00 7,1 6,5 - - 5 3 - - W 1000,2 9 2,2
07.12.2018 07:00:00 8,4 7,9 - - 21 11 57 31 WSW 999,6 5 1,4
07.12.2018 06:00:00 10,5 10,3 - - 29 16 63 34 SW 999,2 3,9 3,4
07.12.2018 05:00:00 10,9 10,6 - - 37 20 57 31 SW 1000,4 3,8 4,2
07.12.2018 04:00:00 10,9 10,6 - - 35 19 61 33 SW 1001,7 3,9 5,6
07.12.2018 03:00:00 10,9 10,6 - - 37 20 59 32 SW 1003,3 2,8 4,2
07.12.2018 02:00:00 11,1 10,9 - - 41 22 59 32 SW 1004,7 3,2 2,2
07.12.2018 01:00:00 11,1 11,1 - - 37 20 61 33 SW 1006,0 5 1,0
07.12.2018 00:00:00 10,9 10,9 - - 41 22 54 29 SW 1007,0 3,7 0,4
06.12.2018 23:00:00 10,7 10,7 - - 34 18 48 26 SW 1008,1 2,1 0,4
06.12.2018 22:00:00 10,6 10,6 - - 24 13 - - SW 1009,4 1,1 0,0
06.12.2018 21:00:00 10,5 10,5 - - 29 16 - - WSW 1010,3 0,4 0,0
06.12.2018 20:00:00 10,6 10,6 - - 29 16 48 26 WSW 1011,0 0,4 0,2
06.12.2018 19:00:00 10,6 10,6 - - 26 14 48 26 WSW 1011,2 1,3 0,0
06.12.2018 18:00:00 10,6 10,6 - - 34 18 54 29 WSW 1011,2 0,6 0,2
06.12.2018 17:00:00 10,6 10,6 - - 29 16 52 28 WSW 1011,2 1,0 0,0
06.12.2018 16:00:00 10,6 10,6 - - 35 19 52 28 WSW 1011,0 0,4 0,2
06.12.2018 15:00:00 10,5 10,5 - - 35 19 57 31 WSW 1011,2 0,4 0,0
06.12.2018 14:00:00 10,6 10,5 - - 39 21 57 31 WSW 1011,5 3,3 0,6
06.12.2018 13:00:00 10,5 10,4 - - 37 20 59 32 WSW 1011,9 3,1 0,0
06.12.2018 12:00:00 10,3 10,2 - - 28 15 54 29 WSW 1012,4 2,6 0,2
06.12.2018 11:00:00 9,9 9,8 - - 31 17 48 26 SW 1012,6 9 0,0
06.12.2018 10:00:00 8,5 7,7 - - 28 15 48 26 SW 1013,4 20 0,6
06.12.2018 09:00:00 9,6 9,6 8,4 9,2 29 16 - - SW 1013,1 12 1,0
06.12.2018 08:00:00 9,6 9,6 - - 26 14 - - SW 1013,0 2,7 0,2
06.12.2018 07:00:00 9,4 9,4 - - 24 13 - - SW 1012,5 2,6 0,2
06.12.2018 06:00:00 9,5 9,5 - - 26 14 - - SW 1012,4 2,4 0,0
06.12.2018 05:00:00 9,4 9,4 - - 24 13 - - SW 1012,6 2,3 0,2
06.12.2018 04:00:00 9,2 9,2 - - 22 12 - - WSW 1012,5 1,9 0,0
06.12.2018 03:00:00 9,1 9,1 - - 21 11 - - SW 1012,2 2,4 0,0
06.12.2018 02:00:00 9,2 9,2 - - 16 9 - - WSW 1012,4 0,4 0,0
06.12.2018 01:00:00 9,0 9,0 - - 21 11 - - WSW 1012,5 3,1 0,2
06.12.2018 00:00:00 8,9 8,9 - - 18 10 54 29 WSW 1011,7 3,4 0,0
05.12.2018 23:00:00 9,3 9,3 - - 15 8 - - WSW 1011,0 0,2 0,0
05.12.2018 22:00:00 9,5 9,5 - - 16 9 - - WSW 1010,6 1,6 0,2
05.12.2018 21:00:00 9,9 9,9 - - 18 10 - - WSW 1010,4 2,1 0,4
05.12.2018 20:00:00 10,1 10,1 - - 16 9 - - WSW 1010,0 7 0,2
05.12.2018 19:00:00 10,4 10,4 - - 13 7 - - SW 1008,9 2,4 0,2
05.12.2018 18:00:00 10,5 10,5 - - 13 7 - - W 1008,1 2,1 0,4
05.12.2018 17:00:00 10,7 10,7 - - 18 10 - - WSW 1007,8 0,4 1,4
05.12.2018 16:00:00 11,0 10,9 - - 22 12 - - SW 1007,3 2,5 2,0
05.12.2018 15:00:00 10,9 10,7 - - 24 13 - - SW 1007,2 6 0,6
05.12.2018 14:00:00 10,7 10,3 - - 15 8 - - WSW 1007,8 50 0,2
05.12.2018 13:00:00 10,5 9,9 - - 22 12 - - SSE 1007,6 19 2,2
05.12.2018 12:00:00 10,0 9,7 - - 9 5 - - SSW 1009,3 5 3,2
05.12.2018 11:00:00 9,5 9,2 - - 11 6 - - S 1010,3 7 6,2
05.12.2018 10:00:00 9,5 9,1 - - 13 7 - - SSW 1010,8 3,9 2,6
05.12.2018 09:00:00 9,3 8,8 7,9 9,2 21 11 - - S 1011,2 17 0,0
05.12.2018 08:00:00 6,8 6,8 - - 21 11 - - SSE 1011,9 6 0,2
05.12.2018 07:00:00 5,1 5,1 - - 8 4 - - N 1012,9 0,7 0,0
05.12.2018 06:00:00 4,8 4,6 - - 5 3 - - N 1013,8 1,2 0,0
05.12.2018 05:00:00 4,5 4,3 - - 5 3 - - N 1014,6 12 0,0
05.12.2018 04:00:00 4,2 3,9 - - 18 10 - - E 1015,2 50 0,0
05.12.2018 03:00:00 4,0 3,6 - - 24 13 - - ESE 1016,2 45 0,2
05.12.2018 02:00:00 3,8 3,3 - - 26 14 - - ESE 1017,1 6 0,2
05.12.2018 01:00:00 2,8 2,3 - - 9 5 - - E 1018,2 3,9 0,4
05.12.2018 00:00:00 2,4 1,7 - - 22 12 - - ESE 1019,3 2,5 2,0
04.12.2018 23:00:00 2,5 1,8 - - 22 12 - - ESE 1020,4 4,8 3,4
04.12.2018 22:00:00 2,2 1,7 - - 15 8 - - ESE 1020,9 3,9 1,8
04.12.2018 21:00:00 1,8 1,3 - - 13 7 - - ESE 1021,4 6 2,6
04.12.2018 20:00:00 1,7 1,1 - - 13 7 - - ESE 1021,8 6 1,0
04.12.2018 19:00:00 2,3 1,5 - - 15 8 - - SE 1022,5 8 0,8
04.12.2018 18:00:00 2,6 1,7 - - 11 6 - - SSE 1022,9 12 0,6
04.12.2018 17:00:00 3,0 1,4 - - 15 8 - - S 1023,1 12 0,2
04.12.2018 16:00:00 3,4 3,1 - - 4 2 - - S 1022,7 40 0,0
04.12.2018 15:00:00 3,1 2,8 - - 2 1 - - N 1022,3 13 0,0
04.12.2018 14:00:00 3,4 3,1 - - 4 2 - - SSW 1022,4 26 0,0
04.12.2018 13:00:00 3,4 2,8 - - 2 1 - - N 1022,9 30 0,0
04.12.2018 12:00:00 4,1 3,6 - - 4 2 - - SSE 1022,5 40 0,0
04.12.2018 11:00:00 3,3 2,9 - - 5 3 - - S 1023,0 30 0,2
04.12.2018 10:00:00 2,7 2,4 - - 2 1 - - SSW 1022,4 28 0,0
04.12.2018 09:00:00 -0,1 -0,2 8,7 9,2 4 2 - - S 1022,4 30 0,0
04.12.2018 08:00:00 -0,5 -0,8 - - 4 2 - - S 1021,6 29 0,0
04.12.2018 07:00:00 -1,1 -1,5 - - 4 2 - - SSE 1021,2 35 0,0
04.12.2018 06:00:00 0,0 -0,4 - - 4 2 - - SSE 1020,1 35 0,0
04.12.2018 05:00:00 0,1 -0,4 - - 4 2 - - SSW 1019,2 21 0,0
04.12.2018 04:00:00 0,8 0,1 - - 0 0 - - N 1018,1 21 0,0
04.12.2018 03:00:00 2,6 1,8 - - 2 1 - - WNW 1017,3 45 0,0

tt = temperature
td = dewpoint
tt -20cm = temperature -20cm
tt -100cm = temperature -100cm
ff = wind speed
fx = gusts
dd = wind direction
ppp = reduced air pressure
vv = visibility
rr = precipitation

Next stations